Simultaneous Nadir Overpasses (SNOs) Predictions

Prediction of SNOs between GOES-15 and TERRA Satellite Orbit:

Table of predicted SNOs for the next 14.0 days since TLE Epoch: 5/25/2024
Index Date Time (GOES-15) GOES-15 Lat,Lon TERRA Lat,Lon Distance(km) Time Diff (sec)
1 05/25/2024 17:32:01 0.19, 61.68 0.58, 63.66 224.61 80
2 05/26/2024 05:54:36 -0.17, 61.66 0.44, 58.82 323.48 80
3 05/28/2024 05:34:36 -0.19, 61.63 -0.48, 62.99 154.87 80
4 05/28/2024 17:57:21 0.18, 61.64 -0.55, 58.11 400.31 80
5 05/30/2024 17:37:20 0.19, 61.61 0.35, 62.29 78.31 80
6 05/31/2024 05:59:53 -0.17, 61.59 0.72, 57.46 469.46 80
7 06/02/2024 05:39:52 -0.18, 61.56 -0.22, 61.64 9.42 80
8 06/04/2024 05:22:30 -0.19, 61.54 -1.07, 65.83 487.41 80
9 06/04/2024 17:45:14 0.17, 61.55 0.07, 60.94 67.91 80
10 06/06/2024 17:25:11 0.19, 61.53 0.96, 65.14 409.99 80
11 06/07/2024 05:47:45 -0.17, 61.51 0.10, 60.30 137.91 80
